Location: Goettingen
(51.5300°N, 9.9433°E)
Time: 06:39:46
(UTC+01:00)

ISS - Pass Details

Date: 11 December 2019
Orbit: 411 x 421 km, 51.6° (Epoch: 15 December)

Event Time Altitude Azimuth Distance (km) Brightness Sun altitude
Rises 17:35:15 0° 281° (W) 2,358 1.1 -12.2°
Reaches altitude 10° 17:37:51 10° 260° (W) 1,493 0.5 -12.6°
Maximum altitude 17:40:04 17° 218° (SW) 1,151 -0.7 -12.9°
Drops below altitude 10° 17:42:17 10° 177° (S) 1,491 -0.8 -13.2°
Sets 17:44:53 0° 155° (SSE) 2,352 0.0 -13.6°
